Amateur radio
NORAD ID: 32791
Int'l Code: 2008-021J
Perigee: 610.9 km
Apogee: 633.3 km
Inclination: 97.8 °
Period: 97.0 minutes
Semi major axis: 6993 km
Launch date: April 28, 2008
Source: Japan (JPN)
Comments: This is a CubeSat satellite. The SEEDS satellite is designed and built by students at Japan's Nihon University. When fully operational, SEEDS will download telemetry in Morse code and 1200-baud FM AFSK packet radio at 437.485 MHz. The satellite also has Slow-Scan TV (SSTV) capability.
Two Line Element Set (TLE):
1 32791U 08021J 13139.19344259 .00002259 00000-0 27337-3 0 6100
2 32791 097.7550 197.9056 0015978 045.4786 347.7821 14.84562086273578
Source: AFSPC
NASA's NSSDC Master Catalog entry for SEEDS